Flag for U.S.A. Weather past 2 weeks in Little Rock, Arkansas, U.S.A.

Now
85 °F

Partly sunny.


Feels Like: 87 °F
Forecast: 68 / 84 °F
Wind: 6 mph from North

Location: Adams Field

Current Time: Sep 19, 2014 at 3:19:43 PM

Latest Report: Sep 19, 2014 at 2:53 PM


Visibility: 10 mi

Pressure: 29.98 "Hg

Humidity: 53%

Dew point: 66 °F

Location of Little RockLocation

Historic Weather in Little Rock — Graph

°F

Little Rock temperature yesterday

Maximum temperature yesterday: 80 °F (at 4:53 PM)
Minimum temperature yesterday: 67 °F (at 5:53 AM)
Average temperature yesterday: 73 °F

Past Weeks' High & Low Weather Summary

 TemperatureHumidityPressure
High94 °F (Sep 4, 3:53 PM)88% (Sep 5, 2:53 AM)30.32 "Hg (Sep 5, 2:53 AM)
Low56 °F (Sep 13, 5:53 AM)45% (Sep 8, 1:53 PM)29.80 "Hg (Sep 10, 6:53 PM)
Average75 °F71%30.05 "Hg
* Reported Sep 4 1:53 PM — Sep 19 1:53 PM, Little Rock, Weather by CustomWeather, © 2014

Note: Actual official high and low records may vary slightly from our data, if they occured in-between our weather recording intervals... More about our weather records

Advertising

Little Rock weather history for previous 24 hours

 ConditionsComfort  
Time TempWeatherWind HumidityBarometerVisibility
1:53 PM
Sep 19
83 °FScattered clouds.8 mph57%30.01 "Hg10 mi
12:53 PM84 °FScattered clouds.6 mph57%30.02 "Hg10 mi
11:53 AM80 °FScattered clouds.No wind64%30.03 "Hg10 mi
10:53 AM76 °FPassing clouds.No wind72%30.04 "Hg10 mi
10:03 AM72 °FPartly sunny.No wind78%30.04 "Hg7 mi
9:53 AM72 °FLow clouds.5 mph78%30.03 "Hg7 mi
8:53 AM70 °FOvercast.8 mph81%30.03 "Hg6 mi
7:53 AM69 °FLow clouds.5 mph81%30.02 "Hg7 mi
7:04 AM66 °FPassing clouds.3 mph88%30.01 "Hg7 mi
6:53 AM67 °FPartly cloudy.3 mph85%30.01 "Hg7 mi
5:53 AM67 °FOvercast.5 mph85%30.00 "Hg10 mi
4:53 AM67 °FPassing clouds.5 mph85%29.99 "Hg10 mi
3:53 AM67 °FPassing clouds.3 mph85%29.98 "Hg10 mi
2:53 AM67 °FPassing clouds.3 mph85%29.99 "Hg10 mi
1:53 AM69 °FPassing clouds.6 mph79%30.00 "Hg10 mi
12:53 AM70 °FOvercast.5 mph79%30.00 "Hg10 mi
11:53 PM
Sep 18
70 °FOvercast.7 mph79%30.01 "Hg10 mi
10:53 PM71 °FOvercast.8 mph78%30.01 "Hg10 mi
9:53 PM71 °FPassing clouds.8 mph78%30.00 "Hg10 mi
8:53 PM72 °FPassing clouds.8 mph81%29.97 "Hg10 mi
7:53 PM75 °FMostly cloudy.9 mph76%29.94 "Hg10 mi
6:53 PM76 °FBroken clouds.7 mph74%29.93 "Hg10 mi
5:53 PM78 °FBroken clouds.9 mph69%29.93 "Hg10 mi
4:53 PM80 °FBroken clouds.10 mph64%29.92 "Hg10 mi
3:53 PM78 °FOvercast.6 mph69%29.93 "Hg10 mi
Weather by CustomWeather, © 2014

See weather overviewHow to use our weather pages